Location: Ústí nad Labem
(50.6611°N, 14.0531°E)
Time: 18:13:09
(UTC+02:00)

S-56A Canister/Altair - Pass Details

Date: 01 May 2025
Orbit: 633 x 2485 km, 38.9° (Epoch: 12 May)

Event Time Altitude Azimuth Distance (km) Brightness Sun altitude
Rises 22:41:44 0° 250° (WSW) 3,231 10.9 -17.3°
Reaches altitude 10° 22:44:09 10° 239° (WSW) 2,462 10.2 -17.5°
Maximum altitude 22:49:07 30° 179° (S) 1,780 8.9 -18.0°
Enters shadow 22:50:42 27° 157° (SSE) 1,981 9.0 -18.1°
